Location: Potomac
(46.8816°N, 113.5795°W)
Time: 01:42:59
(UTC+00:00)

SO-50 - Visible Passes

Search period start: 02 July 2022 00:00
Search period end: 12 July 2022 00:00
Orbit: 586 x 697 km, 64.6° (Epoch: 01 July)

Date Brightness Start Highest point End Pass type
(mag) Time Alt. Az. Time Alt. Az. Time Alt. Az.
02 Jul ? 07:15:40 38° SE 07:16:12 40° ESE 07:20:43 10° NE visible
02 Jul ? 08:53:14 15° WSW 08:56:41 36° NW 09:01:12 10° NNE visible
02 Jul ? 10:36:22 10° NW 10:38:32 13° NNW 10:40:44 10° N visible
03 Jul ? 06:01:27 12° E 06:01:27 12° E 06:02:55 10° E visible
03 Jul ? 07:39:00 43° SSW 07:40:34 85° ESE 07:45:27 10° NE visible
03 Jul ? 09:17:53 10° W 09:21:37 22° NNW 09:25:26 10° NNE visible
03 Jul ? 11:03:17 10° NNW 11:03:54 10° N 11:04:31 10° N visible
04 Jul ? 06:24:43 27° ESE 06:24:57 28° ESE 06:29:01 10° ENE visible
04 Jul ? 08:02:16 21° WSW 08:05:08 48° NW 08:09:53 10° NNE visible
04 Jul ? 09:43:59 10° WNW 09:46:45 15° NNW 09:49:33 10° NNE visible
05 Jul ? 06:47:53 43° S 06:49:10 60° ESE 06:53:58 10° NE visible
05 Jul ? 08:25:52 10° W 08:29:58 27° NW 08:34:10 10° NNE visible
05 Jul ? 10:10:35 10° NNW 10:12:03 11° NNW 10:13:32 10° N visible
06 Jul ? 05:33:23 19° ESE 05:33:43 19° ESE 05:37:06 10° ENE visible
06 Jul ? 07:10:55 25° SW 07:13:39 67° NW 07:18:31 10° NNE visible
06 Jul ? 08:51:44 10° WNW 08:55:00 18° NNW 08:58:19 10° NNE visible
07 Jul ? 05:56:16 31° SSE 05:57:51 41° ESE 06:02:23 10° NE visible
07 Jul ? 07:33:59 10° WSW 07:38:21 35° NW 07:42:52 10° NNE visible
07 Jul ? 09:18:05 10° NW 09:20:14 13° NNW 09:22:23 10° N visible
08 Jul ? 04:41:26 12° ESE 04:42:33 13° ESE 04:44:42 10° E visible
08 Jul ? 06:18:56 20° SW 06:22:12 88° SE 06:27:06 10° NE visible
08 Jul ? 07:59:35 10° W 08:03:17 22° NNW 08:07:04 10° NNE visible
08 Jul ? 09:45:04 10° NNW 09:45:36 10° N 09:46:07 10° N visible
09 Jul ? 05:03:45 16° SSE 05:06:34 28° ESE 05:10:42 10° ENE visible
09 Jul ? 06:42:13 10° WSW 06:46:48 47° NW 06:51:32 10° NNE visible
09 Jul ? 08:25:42 10° WNW 08:28:26 15° NNW 08:31:11 10° NNE visible
10 Jul ? 05:26:10 10° SSW 05:30:49 62° ESE 05:35:38 10° NE visible
10 Jul ? 07:07:33 10° W 07:11:38 27° NW 07:15:48 10° NNE visible
10 Jul ? 08:52:19 10° NNW 08:53:44 11° NNW 08:55:10 10° N visible
10 Jul ? 10:35:08 10° N 10:36:27 11° NNE 10:37:47 10° NNE visible
11 Jul ? 04:11:58 10° SSE 04:15:21 20° ESE 04:18:49 10° ENE visible
11 Jul ? 05:50:36 10° SW 05:55:18 65° NW 06:00:10 10° NNE visible
11 Jul ? 07:33:26 10° WNW 07:36:41 17° NNW 07:39:57 10° NNE visible
11 Jul ? 10:59:06 10° N 11:01:46 14° NNE 11:04:28 10° NE visible
